Home > Weather > Shanghai > Past weeks

Flag for China Past Weather in Shanghai, Shanghai Municipality, China — Yesterday and Last 2 Weeks

Now
90 °F

Clear.


Feels Like: 105 °F
Forecast: 86 / 101 °F
Wind: 8 mph from Southeast

Location: Shanghai Hongqiao Airport

Current Time: Jul 27, 2016 at 12:05:46 AM

Latest Report: Jul 26, 2016 at 11:30 PM


Visibility: 10 mi

Pressure: 29.68 "Hg

Humidity: 71%

Dew Point: 79 °F

Location of ShanghaiLocation

Past Weather in Shanghai — Graph

°F

Shanghai Temperature Yesterday

Maximum temperature yesterday: 104 °F (at 1:00 PM)
Minimum temperature yesterday: 82 °F (at 1:30 AM)
Average temperature yesterday: 92 °F

High & Low Weather Summary for the Past Weeks

 TemperatureHumidityPressure
High104 °F (Jul 26, 1:00 PM)100% (Jul 14, 10:30 AM)29.80 "Hg (Jul 14, 10:30 AM)
Low73 °F (Jul 16, 6:30 AM)35% (Jul 23, 1:00 PM)29.45 "Hg (Jul 15, 3:30 PM)
Average88 °F72%29.66 "Hg
* Reported Jul 11 11:00 PM — Jul 26 11:00 PM, Shanghai, Weather by CustomWeather, © 2016

Note: Actual official high and low records may vary slightly from our data, if they occured in-between our weather recording intervals... More about our weather records

Advertising

Shanghai Weather History for the Previous 24 Hours

Scroll right to see more
 ConditionsComfort  
Time TempWeatherWind HumidityBarometerVisibility
11:00 PM
Tue, Jul 26
90 °FClear.8 mph71%29.68 "Hg10 mi
10:30 PM90 °FClear.8 mph71%29.68 "Hg10 mi
10:00 PM90 °FClear.8 mph75%29.68 "Hg10 mi
9:30 PM90 °FClear.8 mph75%29.68 "Hg10 mi
9:00 PM90 °FClear.8 mph75%29.68 "Hg10 mi
8:30 PM90 °FClear.10 mph71%29.65 "Hg10 mi
8:00 PM91 °FClear.10 mph67%29.65 "Hg10 mi
7:30 PM91 °FClear.10 mph63%29.65 "Hg10 mi
7:00 PM93 °FClear.15 mph63%29.65 "Hg10 mi
6:30 PM93 °FSunny.10 mph63%29.65 "Hg10 mi
6:00 PM95 °FPassing clouds.10 mph60%29.62 "HgN/A
5:30 PM97 °FScattered clouds.10 mph60%29.62 "HgN/A
5:00 PM97 °FPartly sunny.13 mph60%29.62 "HgN/A
4:30 PM102 °FPassing clouds.6 mph45%29.62 "HgN/A
4:00 PM102 °FPassing clouds.3 mph42%29.62 "HgN/A
3:30 PM102 °FSunny.6 mph45%29.62 "Hg10 mi
3:00 PM102 °FSunny.8 mph45%29.62 "Hg10 mi
2:30 PM102 °FSunny.8 mph45%29.62 "Hg10 mi
2:00 PM104 °FSunny.6 mph40%29.62 "Hg10 mi
1:30 PM104 °FSunny.6 mph45%29.62 "Hg10 mi
1:00 PM104 °FSunny.3 mph43%29.65 "Hg10 mi
12:30 PM100 °FSunny.3 mph50%29.65 "Hg10 mi
12:00 PM100 °FSunny.3 mph50%29.65 "Hg10 mi
11:30 AM99 °FSunny.3 mph57%29.68 "Hg10 mi
11:00 AM99 °FPassing clouds.3 mph57%29.68 "HgN/A
10:30 AM97 °FPassing clouds.3 mph56%29.71 "HgN/A
10:00 AM95 °FPassing clouds.6 mph60%29.71 "HgN/A
9:30 AM93 °FPassing clouds.6 mph67%29.71 "HgN/A
9:00 AM91 °FPassing clouds.8 mph67%29.71 "HgN/A
8:30 AM90 °FSunny.8 mph71%29.71 "Hg10 mi
8:00 AM88 °FPassing clouds.8 mph75%29.71 "HgN/A
7:30 AM86 °FSunny.8 mph79%29.71 "Hg10 mi
7:00 AM86 °FSunny.8 mph79%29.71 "Hg10 mi
6:30 AM84 °FSunny.8 mph79%29.71 "Hg10 mi
6:00 AM82 °FSunny.8 mph84%29.71 "Hg10 mi
5:30 AM82 °FSunny.8 mph84%29.71 "Hg10 mi
5:00 AM82 °FClear.10 mph84%29.71 "Hg10 mi
4:30 AM82 °FClear.10 mph84%29.71 "Hg10 mi
4:00 AM82 °FClear.10 mph84%29.71 "Hg10 mi
3:30 AM82 °FClear.10 mph84%29.71 "Hg10 mi
3:00 AM82 °FClear.10 mph84%29.71 "Hg10 mi
2:30 AM82 °FClear.10 mph84%29.71 "Hg10 mi
2:00 AM82 °FClear.10 mph84%29.71 "Hg10 mi
1:30 AM82 °FClear.10 mph84%29.71 "Hg10 mi
1:00 AM84 °FClear.10 mph79%29.71 "Hg10 mi
12:30 AM84 °FClear.13 mph84%29.74 "Hg10 mi
12:00 AM84 °FClear.10 mph79%29.74 "Hg10 mi
Weather by CustomWeather, © 2016

See weather overviewHow to use our weather pages